Home > Weather > Maraimalai Nagar > Past weeks

Flag for India Past Weather in Maraimalai Nagar, Tamil Nadu, India — Yesterday and Last 2 Weeks

Now
88 °F

Partly sunny.


Feels Like: 96 °F
Forecast: 77 / 88 °F
Wind: 13 mph from Southwest

Location: Madras / Minambakkam

Current Time: Jun 27, 2016 at 11:30:05 AM

Latest Report: Jun 27, 2016 at 10:30 AM


Visibility: 4 mi

Pressure: 29.62 "Hg

Humidity: 62%

Dew Point: 73 °F

Location of Maraimalai NagarLocation

Past Weather in Maraimalai Nagar — Graph

°F

Maraimalai Nagar Temperature Yesterday

Maximum temperature yesterday: 91 °F (at 3:00 PM)
Minimum temperature yesterday: 75 °F (at 3:00 AM)
Average temperature yesterday: 83 °F

High & Low Weather Summary for the Past Weeks

 TemperatureHumidityPressure
High100 °F (Jun 13, 3:30 PM)100% (Jun 27, 2:00 AM)29.74 "Hg (Jun 27, 2:00 AM)
Low75 °F (Jun 26, 3:00 AM)37% (Jun 15, 2:00 PM)29.50 "Hg (Jun 16, 4:00 PM)
Average87 °F66%29.62 "Hg
* Reported Jun 12 9:30 AM — Jun 27 10:00 AM, Maraimalai Nagar, Weather by CustomWeather, © 2016

Note: Actual official high and low records may vary slightly from our data, if they occured in-between our weather recording intervals... More about our weather records

Advertising

Maraimalai Nagar Weather History for the Previous 24 Hours

Scroll right to see more
 ConditionsComfort  
Time TempWeatherWind HumidityBarometerVisibility
10:00 AM
Mon, Jun 27
86 °FBroken clouds.9 mph70%29.62 "Hg4 mi
9:30 AM86 °FBroken clouds.9 mph70%29.62 "Hg4 mi
9:00 AM86 °FBroken clouds.6 mph70%29.62 "Hg4 mi
8:30 AM82 °FBroken clouds.6 mph79%29.62 "Hg4 mi
8:00 AM82 °FBroken clouds.6 mph84%29.62 "Hg4 mi
7:30 AM81 °FBroken clouds.7 mph89%29.62 "Hg4 mi
7:00 AM79 °FBroken clouds.7 mph94%29.62 "Hg4 mi
6:30 AM79 °FFog.5 mph94%29.62 "Hg3 mi
6:00 AM79 °FFog.No wind89%29.62 "Hg3 mi
5:30 AM79 °FFog.3 mph89%29.59 "Hg3 mi
5:00 AM77 °FFog.No wind94%29.59 "Hg3 mi
4:30 AM77 °FFog.No wind94%29.59 "Hg3 mi
4:00 AM77 °FFog.No wind94%29.59 "Hg3 mi
3:30 AM77 °FFog.No wind94%29.59 "Hg3 mi
3:00 AM77 °FFog.5 mph94%29.59 "Hg3 mi
2:30 AM77 °FDrizzle. Mostly cloudy.6 mph94%29.59 "Hg2 mi
2:00 AM77 °FDrizzle. Mostly cloudy.No wind100%29.62 "Hg2 mi
1:30 AM77 °FDrizzle. Mostly cloudy.No wind94%29.62 "Hg2 mi
1:00 AM77 °FThunderstorms. Mostly cloudy.No wind94%29.62 "Hg2 mi
12:30 AM77 °FThunderstorms. Mostly cloudy.No wind94%29.65 "Hg2 mi
12:00 AM79 °FThunderstorms. Mostly cloudy.12 mph94%29.68 "Hg1 mi
11:30 PM
Sun, Jun 26
79 °FDrizzle. Mostly cloudy.7 mph94%29.65 "Hg2 mi
11:00 PM79 °FFog.No wind89%29.65 "Hg2 mi
10:30 PM79 °FPartly cloudy.No wind89%29.65 "Hg2 mi
10:00 PM79 °FPartly cloudy.No wind89%29.65 "Hg2 mi
9:30 PM79 °FThunderstorms. Partly cloudy.6 mph84%29.65 "Hg2 mi
9:00 PM79 °FThunderstorms. Partly cloudy.3 mph89%29.65 "Hg2 mi
8:30 PM79 °FThunderstorms. Partly cloudy.6 mph94%29.65 "Hg2 mi
8:00 PM81 °FThunderstorms. Partly cloudy.10 mph84%29.68 "Hg2 mi
7:30 PM86 °FPartly cloudy.7 mph70%29.65 "Hg4 mi
7:00 PM88 °FBroken clouds.No wind62%29.62 "Hg4 mi
6:30 PM88 °FBroken clouds.3 mph62%29.62 "Hg4 mi
6:00 PM88 °FBroken clouds.3 mph62%29.59 "Hg4 mi
5:30 PM90 °FBroken clouds.3 mph63%29.59 "Hg4 mi
5:00 PM90 °FBroken clouds.5 mph59%29.59 "Hg4 mi
4:30 PM90 °FBroken clouds.5 mph59%29.59 "Hg4 mi
4:00 PM90 °FBroken clouds.5 mph63%29.59 "Hg4 mi
3:30 PM90 °FBroken clouds.8 mph59%29.59 "Hg4 mi
3:00 PM91 °FBroken clouds.6 mph56%29.59 "Hg4 mi
2:30 PM90 °FBroken clouds.6 mph63%29.62 "Hg4 mi
2:00 PM90 °FBroken clouds.8 mph63%29.62 "Hg4 mi
1:30 PM90 °FBroken clouds.9 mph55%29.62 "Hg4 mi
1:00 PM90 °FBroken clouds.8 mph59%29.62 "Hg4 mi
12:30 PM90 °FBroken clouds.10 mph59%29.65 "Hg4 mi
12:00 PM88 °FBroken clouds.9 mph62%29.65 "Hg4 mi
11:30 AM88 °FBroken clouds.9 mph62%29.65 "Hg4 mi
11:00 AM86 °FBroken clouds.8 mph62%29.65 "Hg4 mi
Weather by CustomWeather, © 2016

See weather overviewHow to use our weather pages